Wind_Speed
34 34 35 37 40 41 43 45 47 49 51 53 56 59 62 65 69 73 76 79 82 86 90 94 98 103 107 112 116 120 123 127 130 133 136 139 142 146 149 152 155 156 156 158 160 159 158 158 158 158 157 157 158 158 159 160 161 161 162 162 163 164 166
35 34 33 34 37 39 41 43 44 47 49 51 53 55 57 60 64 68 71 75 78 81 84 88 92 96 100 105 109 113 116 120 124 127 130 133 135 138 142 146 149 152 154 156 159 160 159 159 159 158 158 158 158 159 160 161 161 161 162 162 162 162 162
35 35 34 33 34 36 38 40 42 44 46 48 50 52 54 56 59 62 66 70 73 76 80 84 88 91 94 98 103 108 112 115 119 122 125 127 130 133 135 139 142 146 149 152 156 159 160 159 159 159 158 158 159 160 161 161 161 162 162 162 162 161 161
36 36 36 35 34 34 36 38 40 41 43 45 47 49 51 53 55 58 61 65 68 72 76 80 84 88 91 94 98 102 107 110 114 117 119 122 125 127 130 133 135 138 141 145 150 155 157 159 159 159 159 160 160 161 161 162 162 162 162 162 162 162 161
35 35 36 36 35 34 34 36 38 39 41 43 45 47 48 50 52 55 57 61 64 67 71 76 80 84 87 90 93 97 100 103 107 111 114 117 119 122 125 127 129 131 133 137 141 147 152 156 158 159 159 160 161 162 162 162 162 162 162 162 162 162 161
34 35 35 35 36 35 34 34 36 38 39 40 42 44 46 48 50 52 54 57 60 64 66 70 74 78 82 85 88 91 94 97 100 104 108 111 114 117 119 121 123 125 126 129 133 138 144 149 154 157 158 160 161 162 162 162 162 162 162 162 162 162 162
33 33 34 34 35 35 34 34 34 36 37 39 39 41 43 45 47 49 51 53 56 60 63 65 68 72 76 80 83 85 88 91 94 98 101 105 108 112 114 116 118 119 121 123 126 131 136 142 147 152 154 157 160 161 162 162 162 162 162 162 162 162 163
33 33 33 33 34 34 35 34 33 34 36 37 38 39 40 42 44 46 48 50 52 56 59 62 64 67 71 75 78 80 83 86 89 93 95 98 101 104 107 110 113 115 116 118 121 124 129 135 140 145 148 152 156 159 159 160 161 161 161 162 162 162 163
34 33 32 33 33 33 34 34 33 33 34 35 37 37 38 39 41 43 45 47 49 52 55 58 60 62 65 69 72 75 78 81 84 88 90 92 95 97 100 103 107 110 112 114 116 119 123 128 133 138 142 146 150 153 155 157 159 160 160 161 162 162 163
36 34 33 32 32 33 33 34 34 33 33 33 34 36 36 37 38 40 42 44 45 48 50 53 56 58 61 64 67 70 73 77 80 83 86 88 90 93 95 97 100 103 107 110 112 115 118 122 127 132 136 139 143 147 150 153 156 158 159 160 162 162 163
36 35 33 32 32 32 32 33 33 33 33 33 33 34 35 36 36 38 39 41 43 44 46 49 52 54 57 59 62 66 69 72 75 78 81 84 87 89 91 93 95 97 100 103 107 111 114 117 121 125 130 134 137 140 143 146 150 152 155 157 160 161 161
37 35 34 33 32 31 31 31 32 33 33 33 33 32 33 34 35 36 37 39 40 42 44 46 48 50 53 55 58 62 65 68 71 73 76 79 82 85 88 90 91 93 95 97 101 105 109 113 117 121 125 129 132 135 138 141 143 145 148 152 155 157 158
38 36 34 33 33 32 31 30 31 32 32 33 34 33 33 33 33 34 36 37 38 40 42 43 45 47 49 51 54 58 61 64 67 70 72 75 78 81 84 86 88 89 91 92 95 98 102 107 112 116 120 123 126 130 133 136 138 139 141 144 147 150 152
38 37 35 33 33 33 32 30 29 30 31 32 33 34 33 33 33 33 34 35 36 38 39 41 43 44 46 48 51 53 56 60 63 66 69 71 73 76 79 82 85 87 88 89 91 93 97 100 105 110 115 119 122 124 127 130 132 134 135 137 139 142 146
39 37 35 33 32 32 33 32 30 29 29 30 31 32 33 34 34 34 34 34 35 36 37 39 41 42 43 45 47 49 52 56 59 62 65 67 70 72 74 77 80 83 85 87 88 90 92 95 98 103 108 112 116 118 121 123 126 128 130 132 133 135 139
39 37 36 34 32 31 32 32 31 30 29 29 29 30 32 33 34 34 34 34 34 35 36 37 39 40 41 43 44 46 49 52 55 58 61 63 66 68 70 73 75 77 80 83 85 87 89 90 92 96 100 104 108 112 115 117 120 122 124 126 127 129 132
40 38 36 35 32 30 30 32 32 31 30 29 28 29 30 32 33 34 34 34 34 34 34 36 37 39 40 41 42 43 46 48 51 54 56 59 61 64 67 69 70 72 75 78 81 84 85 87 88 91 94 97 101 104 108 111 113 115 117 120 122 124 127
42 40 38 36 33 31 30 30 31 31 31 30 29 28 28 30 32 33 33 34 34 34 34 35 36 37 38 39 40 42 44 46 48 50 52 54 57 60 62 64 65 67 71 74 77 80 82 84 86 88 90 92 94 98 101 104 107 110 112 114 116 119 122
42 41 39 37 35 32 30 29 30 30 30 30 29 28 28 28 30 32 33 33 33 34 34 34 35 36 37 38 39 41 42 44 46 47 48 51 53 56 57 59 61 65 68 70 73 76 79 81 83 84 86 88 89 92 95 98 101 104 107 109 111 114 117
42 41 39 38 37 34 31 29 29 29 29 29 29 29 28 27 28 30 31 33 33 33 34 34 35 35 35 36 38 39 41 42 44 45 46 48 50 51 53 55 58 62 65 68 70 73 76 78 80 81 83 85 86 88 90 93 96 99 101 103 106 109 111
43 41 39 38 37 36 33 30 29 28 28 28 29 29 28 27 27 27 29 31 33 33 33 33 34 34 35 35 37 38 39 40 42 43 44 45 47 48 49 52 56 60 62 65 68 70 72 74 76 78 80 82 83 85 87 89 92 94 96 99 101 103 106
43 41 40 38 37 37 35 33 30 29 28 28 28 28 27 27 27 26 27 28 30 32 33 33 33 33 34 35 36 37 38 39 40 41 42 43 45 46 47 50 53 56 60 62 65 66 69 71 73 75 77 79 80 82 83 85 87 88 90 93 96 98 100
43 42 40 38 37 37 36 35 32 29 28 28 28 27 27 27 26 26 26 27 28 30 32 33 33 33 33 34 34 35 36 37 38 39 40 41 44 45 47 48 50 53 56 59 61 63 66 68 70 72 73 75 77 78 79 80 81 83 85 87 91 94 96
43 42 40 39 37 36 36 35 34 31 29 27 27 27 26 26 26 26 26 26 27 28 29 31 32 32 32 32 33 34 35 36 37 38 39 40 42 44 46 47 49 51 54 56 58 60 63 65 67 68 70 72 74 74 75 76 78 80 82 85 87 90 92
42 41 40 39 37 36 35 35 34 33 30 28 27 26 26 25 25 25 25 26 26 26 27 29 31 31 31 31 32 33 34 35 36 37 37 38 40 42 44 46 47 49 51 53 55 57 59 61 63 65 67 69 70 71 73 76 78 79 81 82 84 86 88
42 41 40 39 38 37 36 35 34 33 31 30 28 27 26 25 24 25 25 25 26 26 26 27 29 30 30 31 31 31 32 33 34 35 36 37 38 40 42 44 45 47 49 51 52 54 55 57 58 61 63 65 67 70 73 75 76 77 78 80 82 83 86
42 41 40 39 38 37 37 36 35 33 31 30 29 28 27 25 24 24 25 25 25 26 26 27 27 28 29 30 30 30 31 32 33 34 35 36 37 38 40 42 44 45 47 48 49 51 53 54 55 57 59 62 65 68 70 71 73 75 76 78 80 82 84
42 41 40 39 38 37 36 36 36 35 33 31 28 28 27 26 25 24 24 25 25 25 26 26 26 27 27 29 30 30 30 30 31 32 34 35 36 37 38 40 42 44 45 46 47 48 49 51 53 55 57 59 61 64 66 68 70 72 74 76 78 79 81
42 41 41 40 38 37 35 34 35 36 35 33 30 27 26 26 26 25 24 24 24 25 25 25 26 27 27 27 29 29 29 30 30 31 32 33 35 35 37 38 40 42 43 45 46 47 47 49 51 53 55 56 58 61 63 64 67 69 71 72 74 76 78
42 41 41 40 39 38 36 34 33 33 34 35 33 30 27 26 25 25 24 24 24 24 25 25 26 27 27 27 28 28 29 29 29 30 31 32 33 34 36 37 38 40 42 43 45 46 46 48 49 51 52 54 57 59 60 61 64 66 68 70 72 74 76
42 41 41 40 39 39 37 35 33 31 32 32 33 33 30 28 26 25 24 24 24 24 24 25 25 26 27 27 28 28 28 29 29 29 30 31 32 33 34 36 37 38 40 41 43 44 45 47 48 49 51 52 55 57 58 59 61 63 65 67 69 71 73
41 41 41 40 39 39 38 37 35 32 31 30 31 31 31 30 28 27 25 24 24 24 24 24 25 26 26 27 28 28 28 28 29 29 29 30 31 32 33 35 36 37 38 40 41 42 44 45 47 48 49 51 53 54 56 58 60 62 63 65 67 68 70
41 41 41 40 39 39 38 38 36 34 31 30 30 30 30 29 28 28 26 24 23 24 24 24 24 25 26 26 27 28 28 29 29 29 29 29 30 31 32 33 34 36 37 38 39 41 42 43 45 46 48 49 51 52 54 55 58 60 62 64 65 67 68
42 41 41 41 40 39 39 38 37 35 33 31 29 30 30 30 28 28 27 26 24 23 23 24 24 24 25 26 26 27 28 29 29 29 29 29 30 30 31 32 33 34 36 37 38 39 40 41 43 44 46 47 49 50 52 54 55 57 60 62 63 65 66
42 42 41 41 40 40 39 39 38 37 36 33 30 29 29 30 29 28 28 27 25 24 23 24 24 24 24 25 26 26 27 28 29 29 29 29 30 30 30 31 32 33 34 35 37 38 39 40 41 43 44 45 46 48 50 52 53 55 56 58 60 62 63
41 41 41 41 40 40 40 39 39 39 38 37 34 31 29 29 30 30 29 28 26 25 24 23 24 24 25 25 25 26 26 27 28 29 30 30 29 30 30 30 31 32 32 34 35 37 38 39 40 41 42 43 44 46 48 50 52 53 54 55 56 58 59
Wind_Direction
294 287 280 274 269 264 261 258 256 254 252 249 247 245 244 244 244 244 244 243 242 241 240 239 239 238 238 237 237 237 236 236 236 237 237 237 237 237 236 236 236 236 236 237 238 237 236 235 235 235 235 235 236 237 238 239 240 241 242 242 242 242 242
299 293 285 278 273 268 264 260 258 256 254 252 250 248 247 245 244 244 244 244 243 243 242 241 240 239 239 238 239 238 238 238 238 237 237 237 237 237 236 236 236 236 236 237 238 238 237 236 236 236 236 236 236 237 237 238 239 240 241 242 242 242 242
303 298 292 284 278 272 267 263 260 258 256 255 253 251 249 248 246 245 244 244 244 243 243 242 241 240 239 238 238 238 238 238 238 238 237 237 237 237 237 236 236 235 235 236 237 238 238 237 237 236 236 236 236 236 237 237 238 239 240 241 242 242 242
306 301 297 291 284 278 273 268 263 260 258 257 255 254 252 250 248 247 246 245 244 243 243 242 242 241 240 238 237 237 237 238 238 238 238 238 238 237 237 237 236 235 235 235 236 237 238 238 237 237 236 236 236 236 237 237 238 238 239 240 241 241 242
308 304 300 295 290 284 279 274 268 264 260 258 257 256 254 252 251 249 248 247 245 244 243 243 243 243 242 240 239 238 238 238 238 238 238 238 238 238 238 237 237 236 235 234 235 236 237 238 238 238 237 237 237 236 236 237 237 238 238 239 240 241 241
310 306 302 297 292 288 283 279 274 269 264 261 258 257 256 254 253 251 249 248 247 246 245 243 243 243 243 243 242 241 240 239 239 238 238 238 238 238 238 238 237 236 235 234 234 234 236 237 238 238 237 237 237 237 237 237 237 238 238 239 239 240 241
313 308 305 300 295 290 286 282 278 273 268 264 261 258 257 256 254 253 251 249 248 247 246 245 244 243 243 243 243 243 242 241 240 239 239 238 238 238 238 238 238 237 236 235 234 234 234 236 237 238 238 238 237 237 237 237 237 237 238 238 239 240 240
317 312 307 303 299 294 289 285 281 277 272 268 264 260 258 257 255 254 252 250 249 248 247 246 245 244 243 243 243 243 243 242 242 241 240 239 239 239 238 238 238 237 237 236 234 234 234 234 236 237 237 237 238 238 237 237 237 237 237 238 238 239 240
320 315 310 306 302 298 294 289 285 280 276 272 268 264 260 258 257 255 253 251 250 248 248 247 246 245 244 244 243 243 242 242 242 242 242 241 240 239 239 238 238 237 237 236 235 234 234 234 235 236 236 237 237 238 237 237 237 237 237 237 237 238 238
323 319 314 309 305 301 297 293 289 285 281 276 271 267 264 261 259 257 255 253 251 250 249 248 247 246 245 244 243 243 242 242 242 242 242 241 241 240 239 238 238 237 236 236 236 235 234 234 234 235 236 236 237 238 238 237 237 237 237 237 237 237 238
326 322 317 313 308 304 300 297 292 289 285 281 275 270 266 263 261 259 257 255 254 252 250 249 248 248 246 245 244 243 242 241 241 241 241 241 241 241 240 239 238 238 237 236 235 235 235 235 234 235 235 236 236 237 238 238 238 237 237 237 237 237 237
329 325 320 316 311 307 303 299 295 291 288 285 281 275 269 265 263 262 260 257 256 254 253 251 249 248 247 246 245 244 243 242 241 241 241 240 241 241 241 240 239 238 237 237 236 235 235 235 235 235 235 236 236 237 237 238 238 237 237 237 237 237 237
331 327 324 319 314 310 306 302 298 294 290 287 284 281 276 269 265 263 262 260 257 256 255 253 251 250 248 247 246 244 244 243 242 241 241 240 240 240 240 240 240 239 238 237 236 236 235 235 235 235 235 236 236 236 237 237 238 238 237 237 237 237 237
332 329 326 322 318 313 309 305 301 296 292 289 286 284 281 277 271 266 263 261 259 257 256 255 254 252 250 248 247 245 244 243 243 242 241 241 240 240 240 240 240 239 239 238 237 236 236 235 235 236 236 236 236 236 237 237 238 238 238 238 237 237 237
333 330 328 325 321 316 312 308 304 299 295 291 287 284 283 281 277 272 267 263 261 259 257 256 255 254 252 250 249 247 245 244 243 243 242 242 241 240 240 240 239 239 239 239 238 238 237 236 236 236 237 237 237 237 237 237 238 238 238 238 238 238 238
335 331 329 327 324 319 314 310 307 303 298 294 289 284 282 280 278 276 272 267 263 261 259 258 256 255 254 253 251 249 247 245 244 243 243 243 242 242 241 240 240 239 239 239 239 239 238 237 237 237 237 238 238 238 238 238 238 238 238 239 239 239 238
335 332 330 328 326 323 317 312 308 305 301 298 293 288 283 280 278 276 273 271 267 263 260 259 258 256 255 254 254 252 250 248 246 245 244 243 243 243 242 241 241 240 239 239 239 239 239 238 238 237 237 237 238 238 239 239 239 238 238 238 239 239 239
336 333 331 329 327 325 321 315 310 306 303 300 296 292 287 282 280 277 275 272 270 267 263 260 259 258 256 255 254 253 252 250 248 246 245 244 243 243 243 242 242 241 240 239 239 238 238 238 238 238 238 237 238 238 239 239 239 239 238 238 238 238 238
337 335 332 330 328 327 324 319 313 308 304 301 298 295 291 286 281 279 277 275 272 269 267 264 261 259 257 255 253 253 253 252 251 249 246 244 243 243 242 242 241 241 240 239 238 238 237 237 237 237 237 237 237 238 238 238 239 239 239 238 238 237 237
337 335 333 331 329 327 325 322 316 310 305 301 298 296 293 289 284 279 277 276 274 271 268 266 264 261 258 257 255 253 252 252 253 252 249 247 245 243 242 241 240 240 239 239 239 238 237 237 236 237 237 237 237 237 237 237 238 238 238 239 239 238 238
336 336 334 333 330 328 326 323 319 313 308 303 299 296 294 292 288 282 278 276 275 273 270 267 265 263 260 258 256 255 253 252 252 252 251 249 247 244 242 241 240 240 239 239 238 238 238 237 236 236 237 237 237 237 237 237 238 238 238 238 239 239 239
335 335 335 334 332 330 327 324 321 316 311 305 300 297 295 293 292 288 282 277 275 274 272 269 266 264 262 259 257 256 255 253 251 251 250 250 249 246 243 241 240 240 240 239 239 239 238 238 237 236 236 237 237 238 238 238 239 239 240 240 240 240 240
335 335 334 334 333 331 328 325 322 319 314 309 303 299 297 295 293 291 287 282 277 274 273 271 268 265 263 261 259 257 255 254 253 251 250 249 249 248 245 242 241 240 240 240 239 239 239 238 238 237 237 237 237 237 238 239 239 240 240 240 240 240 240
334 334 334 334 334 332 330 326 323 320 316 312 307 302 299 296 295 294 291 287 281 276 273 271 269 266 264 263 261 259 256 255 254 253 251 249 249 248 247 244 243 242 241 241 240 239 239 239 239 238 238 237 237 237 237 238 238 238 239 239 239 240 240
333 334 334 334 333 332 331 328 324 321 318 315 311 306 302 298 296 295 293 290 285 280 275 272 270 267 265 263 262 260 258 256 254 253 252 251 249 249 248 247 245 243 243 242 241 241 240 239 239 239 239 238 238 237 236 236 236 237 237 238 239 239 240
332 333 333 333 333 333 331 329 326 323 320 317 314 310 305 301 298 295 293 291 289 285 279 274 271 269 267 264 262 261 260 258 256 254 252 252 250 249 249 248 247 246 245 244 243 242 242 240 239 239 239 239 238 238 237 237 236 236 237 237 238 238 239
331 332 333 333 333 333 333 330 327 324 321 320 317 314 310 305 301 297 294 292 292 289 284 278 273 270 268 266 264 262 260 259 257 256 254 252 251 250 249 249 248 247 246 245 244 243 243 242 241 239 238 238 238 238 239 239 238 238 237 237 237 238 238
330 331 332 332 333 333 333 332 330 326 322 321 320 317 314 310 305 299 296 294 293 291 287 283 278 273 270 268 266 263 261 259 258 257 256 254 252 251 250 249 249 248 248 247 246 244 244 243 242 241 240 239 238 238 239 239 239 239 239 239 239 239 239
329 330 331 331 332 332 333 333 332 329 324 321 320 319 317 314 308 302 298 296 294 292 290 287 283 278 273 269 267 265 262 260 258 258 257 256 254 253 252 250 250 249 248 248 247 246 244 243 243 242 241 240 240 240 239 238 238 239 239 240 240 240 240
328 329 330 330 331 332 332 333 334 332 328 324 321 319 318 315 311 306 301 297 295 294 293 291 287 283 277 272 268 266 264 262 259 258 257 257 256 255 254 252 251 250 249 248 248 247 245 244 243 242 242 241 241 241 240 240 239 239 239 239 240 240 241
327 328 329 329 330 331 331 332 333 333 330 326 324 322 320 317 314 309 305 301 297 295 294 292 289 286 281 276 271 267 265 264 262 259 257 257 256 256 255 254 253 251 250 249 248 247 246 245 244 243 243 242 242 242 241 241 241 241 240 240 240 240 240
326 327 327 328 329 330 330 331 332 333 332 328 325 323 322 320 317 313 309 305 300 297 294 292 290 287 284 280 275 271 267 265 264 261 259 257 256 256 255 254 254 253 251 250 249 248 247 246 245 244 244 243 243 243 243 242 242 242 242 242 241 241 241
325 325 326 327 328 328 329 330 331 332 332 330 327 324 323 322 320 316 312 308 303 298 295 292 291 288 286 282 278 274 270 267 265 263 261 259 257 256 255 254 254 253 253 252 251 249 248 247 246 245 244 244 244 244 243 243 242 243 243 243 243 243 243
324 324 325 326 326 327 328 329 330 331 332 332 330 328 325 324 322 319 315 311 306 300 296 293 290 289 287 284 280 276 273 269 266 264 263 262 260 257 256 255 254 253 253 252 252 251 250 248 247 246 245 244 244 244 244 244 243 243 243 243 244 244 245
323 323 324 324 325 326 327 328 329 330 331 331 331 330 328 326 324 322 318 315 310 304 299 294 291 289 287 285 282 278 274 271 268 265 263 263 262 260 259 257 255 254 253 252 252 252 251 250 249 248 246 245 244 243 243 243 243 243 244 244 244 245 245
321 321 322 323 324 325 326 327 329 330 331 331 331 330 330 328 327 325 322 318 314 309 303 297 293 290 287 285 282 280 276 273 270 267 264 263 262 262 261 259 258 255 254 252 252 251 251 251 250 249 248 247 245 244 243 243 243 243 243 243 244 244 245
Height
10016 10014 10012 10010 10008 10007 10006 10006 10005 10005 10006 10007 10008 10010 10012 10014 10015 10017 10020 10023 10027 10031 10035 10040 10044 10049 10054 10058 10062 10068 10073 10078 10084 10090 10097 10104 10114 10124 10133 10142 10149 10158 10171 10173 10170 10181 10196 10202 10207 10216 10226 10235 10242 10247 10253 10259 10264 10270 10277 10285 10293 10301 10309
10010 10008 10006 10004 10002 10000 9999 9998 9997 9997 9997 9998 9999 10000 10002 10004 10006 10007 10009 10012 10015 10019 10023 10027 10031 10034 10040 10045 10050 10055 10060 10065 10069 10075 10081 10087 10095 10104 10114 10122 10130 10140 10153 10157 10152 10159 10174 10183 10188 10198 10209 10218 10224 10229 10232 10238 10245 10252 10258 10265 10273 10282 10291
10004 10001 9999 9997 9995 9994 9992 9991 9990 9989 9989 9989 9990 9991 9992 9994 9995 9997 9999 10001 10004 10007 10009 10012 10015 10018 10024 10029 10034 10037 10041 10046 10051 10056 10063 10070 10076 10085 10093 10101 10110 10122 10134 10140 10139 10140 10151 10162 10168 10179 10191 10197 10203 10210 10213 10218 10227 10235 10241 10248 10255 10263 10272
9997 9995 9992 9990 9989 9987 9985 9984 9982 9981 9981 9981 9981 9982 9983 9984 9985 9986 9988 9990 9993 9995 9997 9999 10001 10003 10008 10013 10017 10019 10023 10028 10034 10040 10046 10053 10059 10066 10074 10081 10090 10103 10115 10124 10126 10126 10132 10141 10148 10159 10170 10174 10179 10188 10195 10200 10209 10217 10223 10230 10238 10246 10254
9992 9989 9986 9984 9982 9980 9978 9977 9975 9974 9973 9973 9973 9973 9974 9974 9975 9976 9978 9979 9981 9984 9985 9988 9990 9992 9995 9999 10002 10006 10010 10015 10020 10025 10031 10037 10043 10050 10057 10063 10072 10086 10098 10107 10113 10115 10117 10121 10126 10136 10147 10153 10155 10165 10175 10181 10189 10198 10206 10214 10222 10229 10238
9987 9983 9981 9978 9975 9973 9972 9970 9968 9967 9966 9965 9965 9965 9965 9966 9966 9967 9968 9969 9971 9973 9975 9977 9979 9981 9984 9987 9991 9995 9999 10004 10008 10012 10017 10022 10027 10033 10040 10048 10056 10068 10080 10089 10097 10101 10102 10102 10105 10112 10123 10131 10134 10142 10153 10162 10171 10180 10188 10197 10205 10213 10220
9983 9979 9975 9972 9969 9967 9965 9963 9962 9960 9958 9957 9957 9957 9957 9957 9957 9958 9958 9960 9961 9962 9964 9966 9968 9971 9973 9976 9979 9983 9988 9992 9995 9999 10003 10007 10012 10019 10026 10034 10041 10049 10060 10071 10079 10084 10085 10085 10086 10091 10102 10111 10115 10121 10131 10141 10151 10161 10171 10180 10187 10194 10201
9978 9974 9970 9967 9964 9961 9958 9956 9955 9953 9951 9950 9949 9949 9949 9949 9949 9949 9949 9950 9951 9952 9954 9956 9958 9960 9962 9964 9967 9971 9975 9979 9982 9986 9990 9995 10000 10006 10013 10020 10026 10032 10042 10052 10061 10067 10070 10070 10070 10073 10083 10091 10093 10098 10112 10124 10132 10142 10152 10159 10166 10174 10181
9973 9970 9966 9962 9958 9955 9952 9950 9948 9946 9945 9943 9942 9941 9941 9941 9941 9941 9941 9941 9942 9943 9944 9946 9948 9949 9952 9954 9957 9960 9963 9966 9970 9973 9977 9983 9988 9993 9999 10005 10010 10017 10025 10033 10041 10049 10053 10054 10056 10058 10065 10071 10072 10078 10095 10107 10110 10118 10130 10137 10144 10153 10160
9968 9964 9961 9957 9953 9950 9947 9944 9941 9940 9938 9937 9935 9934 9933 9933 9933 9932 9933 9933 9933 9934 9935 9937 9938 9940 9942 9944 9946 9949 9952 9955 9958 9961 9965 9970 9975 9979 9985 9990 9995 10001 10008 10015 10022 10029 10034 10038 10043 10045 10048 10053 10057 10063 10075 10083 10086 10096 10111 10119 10122 10130 10139
9963 9959 9956 9952 9948 9945 9941 9938 9935 9933 9931 9930 9928 9927 9926 9925 9925 9925 9925 9925 9925 9926 9926 9928 9929 9931 9933 9935 9937 9939 9941 9944 9947 9950 9954 9958 9962 9966 9971 9976 9981 9986 9993 9999 10005 10010 10016 10022 10028 10030 10030 10035 10042 10047 10054 10061 10068 10079 10093 10098 10100 10111 10124
9959 9955 9951 9947 9943 9940 9937 9934 9930 9927 9925 9923 9921 9920 9919 9918 9918 9917 9917 9917 9917 9917 9918 9919 9920 9922 9924 9925 9927 9929 9931 9934 9937 9940 9943 9947 9950 9953 9957 9962 9968 9973 9979 9985 9991 9995 10001 10006 10009 10011 10013 10019 10026 10031 10036 10042 10049 10059 10072 10079 10085 10098 10111
9954 9950 9946 9942 9938 9934 9932 9929 9926 9922 9919 9917 9915 9913 9912 9911 9911 9910 9910 9910 9910 9910 9910 9911 9912 9913 9915 9916 9918 9920 9922 9924 9927 9929 9932 9936 9938 9941 9945 9950 9954 9960 9965 9971 9976 9981 9986 9990 9992 9995 9998 10003 10009 10014 10020 10025 10032 10042 10054 10062 10070 10083 10095
9950 9945 9941 9938 9934 9929 9926 9924 9921 9917 9914 9912 9909 9907 9905 9904 9904 9903 9903 9903 9903 9903 9903 9903 9904 9905 9906 9908 9909 9911 9913 9915 9917 9920 9922 9925 9928 9931 9935 9939 9942 9947 9952 9957 9962 9967 9972 9976 9979 9982 9984 9987 9993 9999 10006 10012 10019 10028 10037 10046 10055 10066 10074
9946 9941 9937 9933 9930 9925 9921 9918 9916 9913 9910 9907 9904 9902 9900 9898 9897 9896 9896 9896 9896 9896 9896 9896 9896 9897 9898 9899 9901 9903 9905 9906 9908 9910 9912 9915 9918 9921 9925 9928 9931 9936 9941 9945 9949 9954 9958 9963 9967 9969 9971 9975 9980 9987 9993 9999 10006 10013 10021 10030 10040 10048 10054
9942 9937 9932 9928 9925 9921 9916 9912 9910 9907 9905 9902 9900 9897 9895 9893 9891 9890 9889 9889 9889 9889 9889 9889 9889 9889 9890 9891 9893 9895 9896 9898 9899 9901 9904 9906 9909 9912 9914 9917 9921 9926 9930 9934 9937 9941 9946 9951 9955 9958 9961 9965 9970 9975 9980 9985 9991 9999 10007 10016 10025 10034 10041
9937 9932 9928 9924 9920 9917 9913 9908 9905 9902 9899 9897 9894 9892 9890 9887 9886 9884 9883 9882 9882 9882 9882 9882 9882 9883 9883 9884 9885 9886 9887 9889 9891 9893 9895 9898 9900 9902 9904 9908 9913 9917 9920 9923 9926 9930 9934 9939 9943 9946 9949 9954 9958 9962 9967 9972 9979 9987 9994 10001 10010 10018 10025
9932 9927 9923 9919 9915 9913 9909 9905 9900 9897 9894 9891 9889 9887 9885 9882 9880 9878 9877 9876 9875 9875 9875 9876 9876 9876 9877 9877 9877 9878 9879 9880 9882 9884 9887 9889 9891 9893 9895 9900 9905 9907 9909 9912 9915 9917 9921 9926 9930 9933 9937 9942 9946 9950 9954 9960 9966 9972 9977 9985 9993 10000 10005
9928 9923 9918 9914 9910 9907 9905 9901 9897 9893 9890 9887 9884 9882 9880 9877 9875 9873 9871 9870 9870 9869 9869 9869 9869 9870 9870 9870 9870 9870 9871 9872 9874 9876 9879 9881 9882 9884 9888 9892 9895 9895 9897 9900 9902 9905 9909 9913 9917 9921 9925 9929 9934 9938 9942 9947 9951 9955 9962 9970 9976 9981 9987
9924 9919 9914 9909 9905 9902 9899 9897 9893 9889 9886 9882 9879 9877 9875 9873 9870 9868 9866 9864 9863 9863 9863 9862 9862 9863 9863 9863 9863 9863 9864 9865 9866 9868 9870 9872 9874 9877 9880 9882 9883 9883 9886 9889 9891 9894 9898 9901 9906 9910 9913 9917 9921 9925 9930 9933 9936 9942 9948 9954 9960 9965 9971
9919 9915 9910 9905 9901 9897 9894 9892 9889 9885 9882 9878 9875 9872 9870 9868 9866 9863 9861 9859 9858 9857 9857 9856 9856 9856 9856 9857 9857 9857 9857 9858 9859 9860 9862 9864 9866 9869 9872 9873 9873 9874 9876 9878 9880 9884 9887 9891 9896 9900 9902 9906 9910 9914 9918 9921 9925 9929 9935 9940 9945 9951 9956
9915 9910 9906 9901 9897 9892 9889 9886 9884 9881 9877 9874 9871 9867 9865 9862 9860 9858 9856 9855 9853 9852 9851 9850 9850 9850 9850 9850 9850 9850 9850 9851 9852 9853 9855 9856 9858 9860 9862 9864 9864 9865 9866 9868 9872 9875 9878 9881 9885 9889 9893 9897 9900 9904 9909 9913 9916 9921 9926 9931 9935 9939 9944
9910 9905 9901 9897 9893 9888 9884 9881 9878 9876 9873 9869 9866 9863 9860 9857 9855 9853 9851 9849 9848 9847 9845 9845 9844 9844 9843 9843 9844 9844 9844 9844 9845 9846 9848 9849 9850 9851 9853 9855 9856 9857 9858 9860 9864 9867 9869 9871 9875 9879 9883 9887 9890 9895 9900 9905 9909 9914 9918 9921 9923 9927 9931
9906 9901 9897 9893 9889 9885 9881 9877 9873 9871 9868 9865 9861 9858 9855 9853 9850 9848 9846 9844 9842 9841 9840 9839 9838 9838 9837 9837 9837 9837 9837 9838 9838 9839 9840 9842 9842 9843 9845 9846 9848 9849 9850 9852 9854 9857 9859 9863 9866 9870 9873 9877 9881 9886 9891 9895 9898 9901 9904 9906 9909 9913 9917
9901 9897 9893 9889 9885 9881 9877 9873 9869 9865 9862 9860 9857 9854 9851 9848 9846 9843 9841 9839 9837 9836 9835 9834 9833 9832 9832 9831 9831 9831 9831 9831 9831 9832 9833 9834 9835 9836 9837 9839 9840 9842 9843 9844 9846 9849 9852 9855 9859 9862 9865 9868 9873 9876 9879 9881 9883 9887 9890 9894 9898 9902 9906
9896 9892 9888 9884 9880 9876 9872 9868 9865 9861 9857 9854 9851 9849 9846 9844 9841 9839 9836 9834 9832 9831 9830 9829 9828 9827 9826 9826 9826 9826 9825 9825 9825 9825 9826 9827 9828 9829 9830 9831 9833 9834 9835 9837 9839 9841 9844 9847 9850 9853 9856 9859 9862 9863 9865 9868 9872 9876 9880 9884 9887 9890 9893
9891 9887 9884 9880 9876 9871 9867 9863 9859 9856 9853 9850 9846 9843 9840 9838 9836 9834 9831 9829 9828 9826 9824 9823 9823 9822 9821 9820 9820 9820 9820 9819 9819 9819 9820 9820 9821 9822 9823 9824 9825 9826 9828 9830 9832 9834 9836 9839 9842 9844 9847 9849 9851 9853 9856 9859 9863 9867 9870 9873 9876 9879 9882
9886 9882 9879 9875 9872 9868 9864 9859 9854 9850 9847 9845 9842 9839 9835 9833 9830 9828 9826 9824 9823 9821 9819 9818 9817 9817 9816 9815 9815 9814 9814 9814 9814 9813 9813 9814 9815 9815 9816 9817 9818 9819 9821 9822 9824 9827 9829 9832 9834 9835 9838 9840 9842 9844 9848 9851 9854 9856 9859 9862 9865 9868 9871
9881 9877 9874 9870 9867 9864 9860 9856 9851 9846 9842 9839 9837 9835 9832 9828 9825 9823 9821 9819 9818 9816 9814 9813 9811 9811 9811 9810 9810 9809 9809 9808 9808 9808 9808 9808 9808 9809 9810 9811 9812 9813 9814 9815 9817 9819 9821 9824 9825 9827 9829 9832 9833 9835 9839 9842 9844 9846 9849 9852 9855 9858 9861
9876 9872 9869 9865 9861 9858 9855 9852 9848 9844 9839 9834 9831 9829 9827 9824 9821 9818 9816 9814 9813 9811 9809 9808 9806 9805 9805 9805 9804 9804 9803 9803 9802 9802 9802 9802 9802 9803 9804 9804 9805 9806 9807 9808 9810 9812 9814 9816 9817 9818 9821 9823 9824 9826 9830 9833 9835 9837 9840 9843 9845 9847 9849
9870 9867 9863 9860 9857 9853 9850 9847 9844 9841 9837 9832 9827 9824 9821 9819 9816 9814 9811 9809 9808 9806 9805 9803 9802 9800 9799 9799 9799 9798 9798 9797 9797 9796 9797 9797 9797 9797 9797 9798 9799 9800 9801 9802 9803 9804 9806 9808 9809 9811 9813 9815 9816 9818 9821 9824 9825 9828 9830 9832 9834 9837 9839
9865 9861 9858 9855 9852 9849 9845 9842 9839 9836 9833 9829 9825 9821 9817 9814 9811 9809 9807 9805 9803 9801 9800 9798 9797 9796 9794 9793 9793 9793 9792 9792 9791 9791 9790 9791 9791 9791 9792 9792 9793 9793 9794 9795 9796 9798 9799 9801 9802 9804 9805 9807 9809 9811 9813 9815 9817 9818 9820 9822 9825 9827 9829
9859 9856 9853 9850 9847 9844 9841 9837 9834 9831 9828 9825 9821 9817 9814 9811 9807 9804 9802 9800 9799 9797 9795 9794 9792 9791 9790 9788 9788 9787 9787 9786 9786 9785 9785 9785 9785 9786 9786 9786 9787 9787 9788 9789 9790 9791 9792 9793 9795 9797 9798 9800 9802 9803 9805 9807 9809 9810 9811 9813 9815 9817 9819
9852 9849 9847 9844 9841 9838 9835 9832 9829 9826 9823 9820 9817 9813 9809 9806 9803 9800 9798 9796 9794 9792 9790 9789 9788 9787 9785 9784 9783 9782 9781 9781 9780 9780 9779 9779 9779 9779 9780 9780 9781 9782 9782 9783 9783 9784 9785 9786 9788 9789 9791 9793 9794 9796 9798 9799 9801 9802 9804 9805 9807 9809 9811
9845 9843 9840 9838 9835 9832 9829 9826 9823 9820 9817 9814 9812 9809 9806 9802 9799 9796 9793 9791 9789 9787 9786 9784 9783 9782 9781 9779 9778 9777 9776 9775 9775 9774 9774 9773 9773 9773 9774 9774 9775 9776 9776 9777 9777 9778 9779 9780 9781 9782 9783 9785 9787 9788 9790 9791 9793 9795 9796 9798 9800 9802 9804
9841 9837 9835 9832 9829 9827 9824 9821 9818 9814 9811 9808 9806 9804 9801 9798 9795 9792 9789 9787 9784 9782 9781 9779 9778 9777 9776 9775 9774 9772 9771 9770 9770 9769 9769 9768 9767 9767 9767 9768 9769 9769 9770 9771 9771 9772 9773 9774 9774 9775 9776 9778 9779 9781 9782 9783 9785 9787 9788 9790 9792 9794 9796